Retour au catalogue

CZ-6A DEB

ActifPO
NORAD 61490·DEBRIS·🇨🇳 China

Lancé Aug 6, 2024 depuis Taiyuan Satellite Launch Center

Loading…

Prochains Passages (prochaines 24 heures)

TLE

FraisSource: Space-Track

Époque: Sep 14, 2026, 00:14 UTC

1 61490U 24140AAY 26257.01018043  .00000871  00000-0  36719-3 0  9995
2 61490  88.9910 263.6901 0033901 270.7820  88.9488 14.24586560104254

Suivez CZ-6A DEB en temps réel avec AllMySat

Download on the App Store